一网星座-0713星 (ONEWEB-0713)

导读

ONEWEB-0713是英国OneWeb公司第二代低轨卫星互联网星座的一员,于2023年1月10日由SpaceX猎鹰9号火箭从卡纳维拉尔角发射升空。卫星重约148-200公斤,运行在1200公里近地轨道,配备太阳能供电与电动推进系统,工作于Ku波段,为全球提供高速卫星互联网接入服务,是OneWeb648颗卫星组网计划的组成部分。

基本信息
目录编号:
55175
目录名称:
ONEWEB-0713
国际标识:
2023-004AM
轨道中心:
EARTH
卫星名称:
一网星座-0713星
卫星全名:
一网星座-0713星 (ONEWEB-0713)
卫星状态:
在轨 (已飞行1341 天)
发射日期:
2023-01-10 UTC
国别 :
英国 (GB)
星等 :
--
该卫星已列入 空间交会检测服务 Space Conjunction Data Service (SCDS) ,当前飞行风险评估等级: 无高风险
轨道信息
数据来源 国际轨道数据
星历时间: 2026-09-11T15:59:50+0800
19小时前
查看轨道信息
半长轴: 7595.823km
偏心率: 0.0001782
轨道倾角: 87.897°
近地点辐角 113.479°
升交点赤经 3.940°
平近点角 246.652°
近地点: 1216.332km
远地点: 1219.04km
周期: 109.805分钟
每日圈数: 13.114163
详细信息
平衡模式:
三轴稳定
覆盖范围:
全球
运营商:
一网卫星公司
运营商所在国:
英国
制造商(研发单位):
一网卫星公司
制造商所在国:
英国
使用方式:
暂无
卫星简介
OneWeb卫星网络由648颗重约125公斤的微型卫星组成,运行在1200公里的轨道上。 每颗卫星都能够提供至少每秒8千兆位的吞吐量,以使用其高吞吐量的Ku频段有效载荷为家庭和移动平台提供互联网接入。该卫星仍在工作。
2D轨道图
3D轨道图
轨道高度分析图
轨道倾角分析图
轨道综合分析图
查看轨道综合分析图
与全量物体交会距离演化趋势
与全量物体交会风险概率演化趋势